Weather Service Report


512 
ASUS45 KREV 181410
RWRNV 
NEVADA REGIONAL WEATHER ROUNDUP
NATIONAL WEATHER SERVICE RENO NV
600 AM PST WED JAN 18 2017

NOTE: "FAIR" INDICATES FEW OR NO CLOUDS BELOW 12,000 FEET WITH NO
SIGNIFICANT WEATHER AND/OR OBSTRUCTIONS TO VISIBILITY.

NVZ001-003-004-181500-
WESTERN NEVADA
  
CITY           SKY/WX    TMP DP  RH WIND       PRES   REMARKS
RENO           MOCLDY    31  26  82 CALM      29.98F                  
CARSON CITY    FAIR      28  25  86 CALM      30.03F                  
MINDEN         FAIR      28  27  93 SE3       30.03S                  
PYRAMID LAKE     N/A     34 N/A N/A S9          N/A                   
FALLON         CLOUDY    30  26  85 SW3       30.02F                  
LOVELOCK       MOCLDY    29  28  96 SE3       30.03F                  
HAWTHORNE        N/A     32  30  93 CALM      30.05F                  
$$

NVZ002-CAZ072-073-181500-
NORTHERN AND CENTRAL SIERRA
  
CITY           SKY/WX    TMP DP  RH WIND       PRES   REMARKS
S. LAKE TAHOE  CLOUDY    40  22  48 S10G26    30.04S                  
TRUCKEE        LGT RAIN  36  25  64 S9        30.05S                  
SQUAW VLY 8000   N/A     27  23  86 S21         N/A                   
SUSANVILLE     CLOUDY   N/A N/A N/A SE3       29.99F                  
MAMMOTH LAKES  CLOUDY    21  14  73 CALM      30.10S                  
BRIDGEPORT       N/A     42  21  43 SW9G18    30.03R                  
$$

NVZ030-031-036-181500-
NORTHERN NEVADA
  
CITY           SKY/WX    TMP DP  RH WIND       PRES   REMARKS
ELKO           MOCLDY     6   0  76 E6        30.12F                  
WINNEMUCCA     CLOUDY    29  26  89 E8        30.01F                  
WENDOVER       CLOUDY    21  16  79 SE3       30.18F                  
$$

NVZ035-037-181500-
CENTRAL NEVADA
  
CITY           SKY/WX    TMP DP  RH WIND       PRES   REMARKS
ELY            PTCLDY     9   2  73 S12       30.09F WCI  -6          
EUREKA           N/A     13   7  77 SW3       30.08F                  
$$

NVZ013-014-181500-
SOUTH CENTRAL NEVADA
  
CITY           SKY/WX    TMP DP  RH WIND       PRES   REMARKS
TONOPAH        MOCLDY    21  13  71 NE8       30.11S                  
$$

NVZ017-020-022-181500-
SOUTHERN NEVADA
  
CITY           SKY/WX    TMP DP  RH WIND       PRES   REMARKS
LAS VEGAS      PTCLDY    38  24  57 CALM      30.14R                  
N. LAS VEGAS   CLEAR     34  24  67 NW6       30.15R                  
NELLIS AFB     CLEAR     33  24  68 CALM      30.16R                  
HENDERSON      CLEAR     33  21  61 S10       30.16R                  
MERCURY        CLEAR     27  22  81 E5        30.13R                  
$$
  

Return to Home page


Western Regional Climate Center, wrcc@dri.edu